Погода в Вознесенском

Россия / Хабаровский край     50°07′54″N   136°56′04″E
темп.,
°C
ветер,
м/с
пор.,
м/с
влажн.,
%
обл.,
%
осадки,
мм/ч
давл.,
гПа
погр.,
м
18 августа, чт
чт1801:00+18ююз412940 0.0 1004289
04:00+17ююз412951 0.0 1004280
07:00+17ю399314 0.0 1004284
10:00+21ююз69780 0.0 1002491
13:00+24ююз710680 0.0 1001822
16:00+25ююз711662 0.0 9991267
19:00+23ююз51175100 0.0 998510
22:00+19ю3890100 0.4 998157
19 августа, пт
пт1901:00+18ююз4129589 0.7 997305
04:00+17ююз3798100 0.8 997180
07:00+17ююв2498100 0.0 999134
10:00+19ююз2490100 0.0 999407
13:00+19ююз3488100 0.1 999246
16:00+16ссв1195100 5.9 99850
19:00+15св3798100 8.9 996328
22:00+14с6898100 19.1 994417
20 августа, сб
сб2001:00+14с6998100 16.0 991347
04:00+14с4699100 28.8 987250
07:00+15сз3499100 16.3 987214
10:00+13с6993100 21.6 988541
13:00+13вюв2395100 1.9 989144
16:00+13в2494100 6.3 988215
19:00+12юз2596100 2.4 988276
22:00+12ююв1197100 3.9 98889
21 августа, вс
вс2101:00+12ююв2295100 0.5 98788
04:00+11ю2496100 0.8 987133
07:00+11ююз3696100 0.2 988272
10:00+13юз3590100 0.4 989374
13:00+15зюз248693 0.9 990282
16:00+16ююз237898 1.8 991401
19:00+15вюв238586 0.8 99258
22:00+13ю1193100 1.2 99437
22 августа, пн
пн2201:00+13юв1194100 0.4 99432
04:00+13юз3696100 1.2 995376
07:00+13юз2498100 1.2 996334
10:00+12сз2496100 4.7 996311
13:00+12сз1194100 1.1 998126
16:00+13ссв0193100 1.6 99992
19:00+13св1193100 0.1 100057
22:00+12св1192100 0.1 100138